QPF
0.10 0.11 0.11 0.10 0.09 0.09 0.10 0.10 0.10 0.10 0.10 0.09 0.09 0.08 0.07 0.06 0.06 0.06 0.05 0.06 0.06 0.04 0.03 0.02 0.01 0.01 0.01 0.01 0.01 0.01 0.01 0.01 0.02 0.02 0.02 0.03 0.04 0.04
0.07 0.08 0.10 0.10 0.09 0.09 0.08 0.08 0.08 0.09 0.09 0.08 0.08 0.08 0.09 0.08 0.08 0.07 0.06 0.07 0.07 0.07 0.05 0.03 0.02 0.01 0.01 0.01 0.01 0.01 0.01 0.02 0.02 0.02 0.03 0.03 0.04 0.04
0.06 0.07 0.09 0.10 0.10 0.09 0.08 0.08 0.07 0.08 0.08 0.08 0.07 0.08 0.10 0.10 0.10 0.09 0.08 0.09 0.08 0.07 0.07 0.05 0.03 0.02 0.01 0.01 0.01 0.01 0.01 0.01 0.02 0.02 0.03 0.04 0.04 0.04
0.08 0.09 0.09 0.09 0.10 0.09 0.07 0.06 0.06 0.07 0.08 0.09 0.09 0.09 0.10 0.09 0.09 0.09 0.09 0.09 0.09 0.07 0.07 0.06 0.05 0.03 0.02 0.01 0.01 0.01 0.01 0.02 0.02 0.02 0.03 0.03 0.04 0.04
0.09 0.10 0.10 0.11 0.11 0.11 0.09 0.07 0.06 0.06 0.07 0.09 0.10 0.11 0.12 0.11 0.11 0.11 0.10 0.09 0.08 0.07 0.06 0.06 0.05 0.04 0.03 0.01 0.01 0.01 0.02 0.02 0.02 0.02 0.02 0.02 0.02 0.03
0.09 0.10 0.10 0.10 0.11 0.12 0.11 0.10 0.09 0.08 0.08 0.08 0.09 0.10 0.12 0.12 0.12 0.12 0.11 0.10 0.08 0.07 0.06 0.06 0.06 0.05 0.04 0.02 0.02 0.02 0.01 0.01 0.01 0.01 0.02 0.02 0.02 0.02
0.08 0.10 0.10 0.10 0.10 0.10 0.11 0.10 0.10 0.10 0.09 0.09 0.08 0.09 0.10 0.12 0.11 0.10 0.10 0.09 0.09 0.08 0.06 0.05 0.05 0.06 0.05 0.04 0.03 0.02 0.02 0.02 0.01 0.01 0.01 0.02 0.02 0.02
0.07 0.09 0.08 0.07 0.08 0.08 0.09 0.09 0.09 0.09 0.08 0.08 0.07 0.07 0.07 0.08 0.08 0.09 0.09 0.09 0.09 0.07 0.06 0.05 0.04 0.05 0.05 0.04 0.04 0.03 0.02 0.02 0.02 0.02 0.02 0.02 0.02 0.02
0.06 0.07 0.07 0.06 0.07 0.07 0.08 0.09 0.10 0.10 0.09 0.08 0.07 0.06 0.05 0.06 0.08 0.09 0.09 0.07 0.06 0.05 0.06 0.07 0.06 0.06 0.05 0.04 0.04 0.04 0.03 0.02 0.02 0.02 0.02 0.02 0.02 0.02
0.06 0.07 0.06 0.07 0.08 0.09 0.11 0.11 0.10 0.09 0.08 0.07 0.07 0.06 0.05 0.06 0.07 0.09 0.10 0.10 0.08 0.07 0.06 0.08 0.07 0.06 0.05 0.04 0.04 0.04 0.03 0.03 0.02 0.02 0.02 0.02 0.02 0.01
0.05 0.06 0.07 0.07 0.09 0.10 0.11 0.13 0.11 0.08 0.07 0.06 0.07 0.07 0.07 0.09 0.10 0.12 0.12 0.11 0.10 0.08 0.07 0.06 0.06 0.06 0.05 0.04 0.04 0.04 0.04 0.04 0.03 0.03 0.02 0.02 0.01 0.01
0.06 0.05 0.07 0.08 0.09 0.09 0.09 0.10 0.11 0.08 0.07 0.07 0.08 0.08 0.09 0.10 0.12 0.11 0.11 0.11 0.10 0.08 0.06 0.06 0.06 0.05 0.05 0.04 0.03 0.03 0.04 0.04 0.05 0.04 0.03 0.02 0.02 0.01
0.07 0.06 0.08 0.09 0.09 0.08 0.09 0.08 0.09 0.08 0.07 0.08 0.08 0.09 0.10 0.11 0.10 0.09 0.08 0.09 0.10 0.08 0.06 0.05 0.06 0.06 0.05 0.05 0.05 0.04 0.04 0.04 0.04 0.04 0.03 0.02 0.02 0.01
0.07 0.06 0.07 0.08 0.08 0.08 0.09 0.09 0.10 0.11 0.10 0.11 0.10 0.10 0.10 0.11 0.09 0.08 0.08 0.08 0.09 0.07 0.06 0.05 0.05 0.05 0.05 0.05 0.05 0.05 0.05 0.05 0.04 0.03 0.03 0.02 0.02 0.01
0.08 0.07 0.08 0.08 0.09 0.09 0.09 0.09 0.10 0.11 0.12 0.12 0.11 0.09 0.09 0.09 0.09 0.09 0.09 0.08 0.08 0.07 0.07 0.06 0.05 0.05 0.05 0.05 0.05 0.05 0.05 0.04 0.04 0.03 0.03 0.02 0.01 0.01
0.08 0.08 0.08 0.09 0.09 0.09 0.09 0.09 0.10 0.12 0.13 0.11 0.10 0.10 0.09 0.09 0.08 0.08 0.08 0.08 0.07 0.07 0.06 0.05 0.05 0.05 0.05 0.04 0.04 0.05 0.05 0.05 0.04 0.04 0.03 0.03 0.02 0.01
0.08 0.09 0.09 0.09 0.09 0.08 0.07 0.08 0.10 0.12 0.14 0.12 0.11 0.11 0.10 0.09 0.09 0.08 0.08 0.07 0.07 0.06 0.06 0.06 0.05 0.04 0.05 0.05 0.05 0.05 0.05 0.05 0.04 0.03 0.03 0.02 0.02 0.01
0.08 0.08 0.08 0.08 0.07 0.07 0.07 0.07 0.09 0.10 0.11 0.11 0.10 0.10 0.09 0.08 0.09 0.08 0.07 0.07 0.06 0.05 0.05 0.05 0.05 0.04 0.05 0.05 0.05 0.04 0.04 0.04 0.03 0.03 0.02 0.02 0.02 0.01
0.08 0.06 0.05 0.06 0.06 0.06 0.06 0.06 0.06 0.07 0.08 0.08 0.09 0.09 0.09 0.08 0.08 0.08 0.08 0.07 0.06 0.05 0.05 0.05 0.04 0.04 0.04 0.04 0.04 0.04 0.04 0.04 0.03 0.02 0.02 0.01 0.01 0.01
0.08 0.06 0.05 0.05 0.05 0.06 0.05 0.05 0.05 0.05 0.06 0.07 0.08 0.09 0.09 0.10 0.09 0.08 0.07 0.06 0.06 0.06 0.05 0.04 0.04 0.04 0.04 0.04 0.04 0.04 0.04 0.03 0.02 0.02 0.01 0.01 0.01 0.01
0.08 0.07 0.06 0.05 0.05 0.05 0.05 0.05 0.04 0.04 0.05 0.07 0.08 0.09 0.09 0.09 0.09 0.08 0.07 0.06 0.06 0.05 0.05 0.04 0.04 0.05 0.05 0.05 0.04 0.04 0.03 0.03 0.02 0.02 0.02 0.02 0.02 0.01
0.07 0.07 0.07 0.07 0.07 0.07 0.06 0.05 0.04 0.04 0.05 0.06 0.07 0.08 0.08 0.07 0.07 0.08 0.07 0.06 0.05 0.05 0.05 0.05 0.05 0.05 0.04 0.04 0.03 0.03 0.03 0.02 0.02 0.02 0.02 0.02 0.02 0.02
0.08 0.08 0.08 0.08 0.08 0.08 0.07 0.06 0.04 0.04 0.05 0.06 0.06 0.06 0.07 0.07 0.07 0.08 0.08 0.08 0.07 0.06 0.06 0.05 0.05 0.04 0.04 0.04 0.03 0.03 0.03 0.02 0.02 0.02 0.02 0.01 0.01 0.01
MSLP
1003.71 1002.64 1001.45 1000.20 998.93 997.71 996.62 995.69 994.96 994.47 994.20 994.14 994.27 994.56 994.97 995.49 996.10 996.79 997.55 998.38 999.27 1000.21 1001.18 1002.16 1003.15 1004.11 1005.04 1005.94 1006.80 1007.62 1008.40 1009.14 1009.85 1010.50 1011.08 1011.57 1011.97 1012.26
1002.27 1001.00 999.64 998.25 996.90 995.68 994.65 993.87 993.35 993.10 993.11 993.33 993.71 994.21 994.79 995.41 996.08 996.78 997.52 998.31 999.15 1000.05 1000.99 1001.95 1002.92 1003.87 1004.80 1005.68 1006.52 1007.32 1008.08 1008.81 1009.50 1010.15 1010.74 1011.25 1011.67 1011.97
1000.90 999.43 997.90 996.38 994.95 993.72 992.76 992.11 991.78 991.78 992.05 992.54 993.17 993.88 994.63 995.38 996.11 996.85 997.59 998.37 999.19 1000.07 1000.98 1001.93 1002.88 1003.82 1004.71 1005.56 1006.36 1007.12 1007.84 1008.54 1009.21 1009.84 1010.43 1010.95 1011.39 1011.71
999.77 998.14 996.47 994.83 993.34 992.10 991.18 990.64 990.48 990.67 991.16 991.87 992.72 993.62 994.52 995.38 996.20 996.98 997.75 998.54 999.37 1000.25 1001.16 1002.10 1003.04 1003.95 1004.81 1005.61 1006.36 1007.05 1007.72 1008.36 1008.99 1009.60 1010.18 1010.70 1011.15 1011.49
998.99 997.26 995.48 993.78 992.24 991.00 990.12 989.66 989.61 989.94 990.58 991.45 992.44 993.47 994.48 995.43 996.32 997.16 997.98 998.80 999.66 1000.56 1001.49 1002.44 1003.36 1004.25 1005.07 1005.81 1006.48 1007.10 1007.68 1008.26 1008.83 1009.41 1009.97 1010.49 1010.95 1011.32
998.57 996.81 995.01 993.28 991.75 990.52 989.68 989.26 989.27 989.68 990.39 991.33 992.39 993.49 994.55 995.56 996.49 997.38 998.25 999.12 1000.02 1000.96 1001.92 1002.88 1003.80 1004.66 1005.43 1006.10 1006.69 1007.22 1007.72 1008.22 1008.73 1009.26 1009.79 1010.32 1010.79 1011.18
998.47 996.75 994.99 993.30 991.81 990.62 989.81 989.43 989.46 989.88 990.61 991.55 992.61 993.70 994.76 995.77 996.73 997.64 998.54 999.46 1000.40 1001.38 1002.38 1003.35 1004.26 1005.09 1005.81 1006.42 1006.92 1007.36 1007.78 1008.19 1008.64 1009.12 1009.63 1010.15 1010.63 1011.04
998.57 996.94 995.28 993.68 992.27 991.16 990.40 990.04 990.09 990.49 991.18 992.07 993.07 994.11 995.12 996.10 997.03 997.94 998.86 999.80 1000.78 1001.79 1002.80 1003.78 1004.69 1005.48 1006.15 1006.69 1007.12 1007.48 1007.81 1008.15 1008.54 1008.98 1009.46 1009.97 1010.45 1010.88
998.73 997.23 995.70 994.24 992.95 991.93 991.25 990.94 991.00 991.38 992.01 992.83 993.75 994.70 995.64 996.55 997.43 998.31 999.21 1000.15 1001.14 1002.15 1003.16 1004.13 1005.01 1005.77 1006.39 1006.88 1007.24 1007.53 1007.80 1008.08 1008.42 1008.83 1009.29 1009.79 1010.27 1010.71
998.84 997.47 996.09 994.78 993.63 992.75 992.17 991.93 992.02 992.40 993.00 993.76 994.60 995.46 996.31 997.13 997.95 998.77 999.63 1000.53 1001.49 1002.48 1003.46 1004.39 1005.24 1005.96 1006.53 1006.96 1007.28 1007.53 1007.75 1008.00 1008.30 1008.68 1009.13 1009.61 1010.09 1010.53
998.82 997.56 996.32 995.16 994.18 993.44 993.00 992.86 993.02 993.43 994.03 994.76 995.54 996.33 997.11 997.85 998.59 999.35 1000.13 1000.98 1001.87 1002.80 1003.72 1004.60 1005.40 1006.06 1006.60 1006.99 1007.28 1007.50 1007.70 1007.93 1008.22 1008.58 1009.00 1009.47 1009.93 1010.36
998.65 997.48 996.35 995.34 994.51 993.94 993.65 993.65 993.91 994.39 995.03 995.77 996.54 997.29 998.01 998.69 999.36 1000.04 1000.75 1001.51 1002.32 1003.16 1004.01 1004.81 1005.54 1006.15 1006.64 1007.01 1007.28 1007.49 1007.69 1007.91 1008.19 1008.54 1008.94 1009.39 1009.82 1010.23
998.37 997.26 996.22 995.34 994.66 994.25 994.12 994.27 994.66 995.25 995.97 996.75 997.53 998.28 998.98 999.62 1000.23 1000.84 1001.46 1002.13 1002.85 1003.60 1004.35 1005.07 1005.72 1006.28 1006.74 1007.08 1007.34 1007.55 1007.76 1007.98 1008.25 1008.58 1008.96 1009.37 1009.77 1010.13
998.02 996.95 996.00 995.22 994.69 994.43 994.46 994.76 995.30 996.01 996.82 997.67 998.50 999.27 999.97 1000.59 1001.16 1001.71 1002.26 1002.84 1003.47 1004.11 1004.77 1005.40 1005.99 1006.49 1006.91 1007.23 1007.49 1007.70 1007.91 1008.13 1008.39 1008.70 1009.04 1009.40 1009.75 1010.06
997.68 996.64 995.76 995.09 994.68 994.57 994.75 995.20 995.87 996.70 997.61 998.53 999.42 1000.22 1000.92 1001.54 1002.09 1002.59 1003.09 1003.60 1004.14 1004.70 1005.27 1005.82 1006.34 1006.79 1007.16 1007.47 1007.72 1007.93 1008.13 1008.34 1008.58 1008.86 1009.15 1009.45 1009.74 1009.98
997.37 996.38 995.58 995.02 994.74 994.76 995.08 995.65 996.43 997.35 998.34 999.32 1000.25 1001.08 1001.80 1002.42 1002.96 1003.44 1003.90 1004.36 1004.83 1005.32 1005.82 1006.30 1006.76 1007.16 1007.50 1007.77 1008.00 1008.20 1008.38 1008.57 1008.78 1009.01 1009.25 1009.49 1009.70 1009.88
997.12 996.21 995.52 995.07 994.91 995.05 995.48 996.15 997.02 998.00 999.03 1000.05 1001.00 1001.84 1002.57 1003.19 1003.72 1004.19 1004.63 1005.06 1005.50 1005.94 1006.39 1006.82 1007.22 1007.57 1007.86 1008.11 1008.30 1008.47 1008.62 1008.77 1008.93 1009.11 1009.29 1009.47 1009.62 1009.75
996.94 996.15 995.57 995.26 995.22 995.48 996.00 996.75 997.65 998.66 999.70 1000.72 1001.66 1002.50 1003.22 1003.84 1004.37 1004.84 1005.27 1005.69 1006.11 1006.53 1006.94 1007.33 1007.68 1007.98 1008.24 1008.43 1008.58 1008.70 1008.81 1008.91 1009.02 1009.14 1009.26 1009.39 1009.49 1009.57
996.83 996.18 995.76 995.58 995.68 996.04 996.63 997.42 998.34 999.34 1000.36 1001.35 1002.25 1003.06 1003.77 1004.38 1004.91 1005.39 1005.83 1006.25 1006.67 1007.07 1007.46 1007.81 1008.12 1008.38 1008.58 1008.72 1008.81 1008.88 1008.92 1008.97 1009.03 1009.10 1009.18 1009.26 1009.34 1009.40
996.82 996.33 996.06 996.04 996.25 996.71 997.36 998.17 999.09 1000.06 1001.03 1001.96 1002.81 1003.58 1004.26 1004.86 1005.39 1005.87 1006.33 1006.76 1007.18 1007.57 1007.94 1008.27 1008.53 1008.74 1008.88 1008.96 1008.99 1008.99 1008.98 1008.97 1008.98 1009.01 1009.06 1009.13 1009.20 1009.27
996.92 996.60 996.49 996.60 996.93 997.47 998.16 998.98 999.88 1000.80 1001.71 1002.58 1003.38 1004.10 1004.75 1005.33 1005.86 1006.35 1006.81 1007.25 1007.67 1008.06 1008.40 1008.69 1008.91 1009.06 1009.14 1009.15 1009.12 1009.06 1008.99 1008.94 1008.91 1008.92 1008.96 1009.03 1009.12 1009.21
997.18 997.01 997.04 997.28 997.71 998.30 999.03 999.84 1000.71 1001.58 1002.43 1003.24 1003.98 1004.65 1005.27 1005.83 1006.35 1006.84 1007.31 1007.75 1008.16 1008.53 1008.84 1009.09 1009.25 1009.34 1009.35 1009.30 1009.21 1009.09 1008.98 1008.89 1008.85 1008.85 1008.90 1008.99 1009.11 1009.26
997.63 997.59 997.74 998.07 998.57 999.20 999.94 1000.74 1001.56 1002.39 1003.18 1003.93 1004.62 1005.26 1005.84 1006.39 1006.90 1007.38 1007.84 1008.27 1008.65 1008.99 1009.26 1009.45 1009.56 1009.58 1009.53 1009.42 1009.28 1009.12 1008.98 1008.87 1008.82 1008.83 1008.90 1009.03 1009.20 1009.40
Thickness
5546 5548 5550 5554 5557 5559 5561 5561 5560 5562 5568 5573 5577 5581 5584 5585 5586 5584 5583 5581 5578 5575 5572 5567 5563 5558 5553 5547 5541 5535 5529 5523 5517 5512 5507 5502 5497 5492
5538 5539 5542 5545 5548 5550 5553 5555 5555 5556 5559 5565 5568 5571 5574 5576 5577 5576 5574 5573 5571 5568 5565 5560 5555 5551 5545 5539 5534 5528 5522 5516 5510 5504 5499 5494 5490 5484
5530 5532 5535 5538 5540 5543 5546 5548 5549 5549 5551 5556 5557 5561 5563 5565 5566 5566 5566 5564 5563 5561 5557 5553 5548 5543 5537 5531 5526 5520 5514 5508 5502 5497 5491 5487 5482 5477
5523 5524 5528 5530 5532 5537 5540 5541 5542 5543 5543 5545 5547 5550 5552 5555 5556 5556 5557 5556 5555 5553 5549 5546 5541 5535 5530 5524 5518 5513 5506 5500 5494 5489 5484 5480 5475 5470
5515 5518 5521 5522 5525 5529 5532 5534 5535 5536 5536 5536 5538 5541 5542 5544 5545 5546 5547 5547 5546 5544 5540 5536 5533 5528 5523 5517 5511 5505 5499 5493 5488 5482 5477 5472 5467 5462
5509 5511 5514 5516 5519 5522 5524 5526 5526 5526 5527 5527 5529 5531 5532 5534 5535 5534 5535 5536 5536 5534 5531 5528 5524 5519 5515 5510 5505 5498 5492 5486 5480 5475 5470 5465 5460 5454
5501 5504 5507 5510 5513 5515 5517 5517 5517 5517 5517 5518 5520 5522 5522 5524 5526 5526 5526 5525 5524 5523 5521 5518 5515 5512 5507 5502 5497 5491 5485 5479 5474 5469 5464 5459 5454 5448
5494 5497 5500 5502 5505 5508 5509 5510 5510 5510 5510 5510 5513 5514 5516 5518 5518 5517 5516 5515 5513 5513 5511 5508 5506 5502 5498 5494 5489 5484 5479 5473 5468 5462 5458 5452 5447 5442
5487 5490 5493 5496 5497 5499 5500 5502 5503 5504 5505 5506 5506 5509 5510 5511 5510 5509 5509 5507 5506 5504 5500 5497 5495 5493 5490 5485 5481 5476 5471 5466 5461 5456 5451 5446 5441 5435
5480 5482 5485 5487 5489 5489 5491 5493 5495 5497 5498 5499 5501 5503 5503 5503 5504 5503 5500 5496 5494 5492 5491 5487 5485 5483 5481 5477 5473 5469 5464 5460 5455 5451 5446 5440 5435 5429
5473 5476 5478 5480 5482 5483 5484 5485 5486 5489 5491 5492 5494 5494 5495 5496 5495 5493 5489 5487 5485 5483 5481 5479 5476 5473 5470 5468 5464 5461 5457 5453 5449 5445 5439 5434 5429 5423
5466 5469 5472 5474 5474 5475 5476 5477 5478 5479 5481 5483 5484 5484 5485 5486 5487 5486 5484 5481 5478 5475 5473 5471 5467 5463 5460 5458 5455 5453 5449 5446 5442 5438 5433 5428 5423 5418
5460 5462 5464 5467 5468 5469 5470 5471 5473 5472 5472 5474 5475 5475 5476 5475 5476 5476 5476 5475 5473 5470 5469 5466 5461 5457 5454 5449 5446 5444 5442 5438 5435 5431 5427 5422 5418 5413
5455 5456 5458 5460 5462 5463 5464 5466 5465 5464 5464 5465 5466 5467 5467 5467 5467 5467 5467 5467 5467 5466 5463 5461 5457 5453 5448 5442 5438 5436 5434 5432 5428 5425 5421 5417 5412 5408
5450 5451 5453 5454 5455 5456 5457 5457 5456 5456 5456 5457 5459 5459 5459 5459 5458 5457 5457 5457 5456 5455 5454 5453 5451 5448 5444 5439 5433 5429 5426 5425 5423 5419 5415 5411 5407 5402
5445 5445 5446 5447 5447 5448 5448 5447 5447 5448 5449 5450 5451 5451 5451 5451 5450 5450 5449 5448 5446 5443 5442 5442 5442 5440 5436 5433 5429 5425 5422 5419 5417 5413 5409 5405 5401 5397
5439 5440 5439 5439 5438 5438 5438 5438 5439 5440 5441 5442 5443 5444 5444 5444 5444 5443 5442 5441 5439 5436 5433 5432 5432 5430 5428 5426 5421 5419 5416 5414 5411 5407 5403 5399 5395 5392
5435 5434 5433 5432 5431 5431 5431 5432 5432 5433 5435 5436 5437 5437 5437 5438 5437 5436 5435 5434 5433 5430 5427 5425 5423 5422 5419 5415 5415 5413 5410 5408 5405 5401 5398 5394 5390 5387
5427 5427 5426 5425 5425 5425 5425 5426 5426 5427 5428 5430 5431 5431 5431 5431 5431 5430 5428 5427 5425 5423 5420 5419 5418 5418 5415 5410 5405 5406 5404 5402 5398 5395 5392 5389 5386 5383
5418 5419 5419 5419 5419 5419 5419 5420 5420 5421 5422 5423 5424 5424 5424 5424 5424 5423 5422 5421 5420 5417 5414 5413 5413 5414 5412 5407 5400 5398 5398 5396 5394 5391 5387 5384 5381 5379
5410 5411 5412 5412 5412 5413 5413 5414 5415 5416 5417 5417 5418 5418 5419 5418 5418 5417 5417 5416 5415 5412 5411 5409 5408 5407 5404 5401 5396 5392 5391 5391 5389 5386 5383 5379 5376 5374
5403 5404 5405 5406 5407 5408 5408 5409 5411 5411 5412 5412 5413 5413 5413 5413 5413 5412 5412 5411 5410 5408 5406 5404 5402 5402 5400 5398 5394 5390 5386 5385 5383 5382 5380 5378 5374 5370
5396 5397 5399 5401 5402 5403 5403 5405 5406 5407 5407 5408 5408 5409 5409 5408 5408 5408 5407 5407 5405 5404 5402 5400 5398 5396 5395 5393 5390 5386 5383 5380 5378 5376 5374 5374 5373 5370